Hourly Data Report for October 06, 2017

All times are specified in Local Standard Time (LST). Add 1 hour to adjust for Daylight Saving Time where and when it is observed.

PARRY SOUND CCG
ONTARIO

45°20'39.000" N
80°02'39.000" W
176.30 m
6116257
71172
XPC

Download Data

Hourly Data (October 2017)
Hourly Data Report for October 6, 2017
Temp Definition
°C
Dew Point Temp Definition
°C
Rel Hum Definition
%
Wind Dir Definition
10's deg

Wind Spd Definition
km/h
Visibility Definition
km
Stn Press Definition
kPa
Hmdx Definition


Wind Chill Definition


Weather Definition


TIME
00:00 14.8 9.8 72 LegendMM LegendMM   99.49     LegendNANA
01:00 14.8 9.7 72 LegendMM LegendMM   99.51     LegendNANA
02:00 14.7 9.6 72 LegendMM LegendMM   99.51     LegendNANA
03:00 13.3 9.4 77 LegendMM LegendMM   99.50     LegendNANA
04:00 12.7 9.4 80 LegendMM LegendMM   99.54     LegendNANA
05:00 12.1 7.9 75 LegendMM LegendMM   99.54     LegendNANA
06:00 12.1 7.7 74 LegendMM LegendMM   99.54     LegendNANA
07:00 12.2 9.2 82 LegendMM LegendMM   99.59     LegendNANA
08:00 12.3 7.6 73 LegendMM LegendMM   99.63     LegendNANA
09:00 11.9 7.5 74 LegendMM LegendMM   99.67     LegendNANA
10:00 12.4 7.4 72 LegendMM LegendMM   99.68     LegendNANA
11:00 12.9 7.5 69 LegendMM LegendMM   99.67     LegendNANA
12:00 13.3 8.1 71 LegendMM LegendMM   99.65     LegendNANA
13:00 14.1 8.7 70 LegendMM LegendMM   99.61     LegendNANA
14:00 15.2 8.6 65 LegendMM LegendMM   99.55     LegendNANA
15:00 15.2 8.5 65 LegendMM LegendMM   99.52     LegendNANA
16:00 15.5 8.6 63 LegendMM LegendMM   99.46     LegendNANA
17:00 15.2 9.6 69 LegendMM LegendMM   99.43     LegendNANA
18:00 13.6 9.7 77 LegendMM LegendMM   99.45     LegendNANA
19:00 11.4 9.6 89 LegendMM LegendMM   99.48     LegendNANA
20:00 10.5 9.1 91 LegendMM LegendMM   99.48     LegendNANA
21:00 10.6 9.3 92 LegendMM LegendMM   99.44     LegendNANA
22:00 11.0 9.5 90 LegendMM LegendMM   99.39     LegendNANA
23:00 11.5 9.8 89 LegendMM LegendMM   99.34     LegendNANA

Notes on Data Quality.

Legend

  • E = Estimated
  • M = Missing
  • NA = Not Available
  • ‡ = Partner data that is not subject to review by the National Climate Archives
Date modified: